Regional Weather Roundup
Issued by NWS

Home | Current Version | Previous Version | Graphics & Text | Print | Product List | Glossary On
Versions: 1 2 3 4 5 6 7 8 9 10 11 12 13 14 15 16 17 18 19 20 21 22 23 24 25 26 27 28 29 30 31 32 33 34 35 36 37 38 39 40 41 42 43 44 45 46 47 48 49 50
000
ASUS43 KMPX 190810
RWRMN
WEATHER ROUNDUP FOR MINNESOTA
NATIONAL WEATHER SERVICE TWIN CITIES/CHANHASSEN MN
300 AM CDT THU OCT 19 2017


NOTE: "FAIR" INDICATES FEW OR NO CLOUDS BELOW 12,000 FEET WITH NO
SIGNIFICANT WEATHER AND/OR OBSTRUCTIONS TO VISIBILITY. N/A MEANS
CURRENT SKY AND/OR WEATHER CONDITIONS ARE NOT AVAILABLE.

MNZ060>063-068>070-190900-
   Twin Cities Metro

CITY           SKY/WX    TMP DP  RH WIND       PRES   REMARKS
TWIN CITIES    CLOUDY    50  31  48 SW6       30.03S
ST PAUL        CLOUDY    45  38  76 CALM      30.04S
CRYSTAL        CLOUDY    49  27  42 W8        30.01S HAZE
BLAINE         CLOUDY    52  30  43 W6        30.02R
LAKEVILLE      CLOUDY    39  34  81 CALM      30.04S
EDEN PRAIRIE   CLOUDY    46  31  55 SW3       30.02S
SOUTH ST PAUL  CLOUDY    47  31  54 W5        30.03S
LAKE ELMO      FAIR      45  32  61 CALM      30.03S
$$
MNZ001>005-007-008-013>017-022>024-027-028-190900-
   Northwest Minnesota

CITY           SKY/WX    TMP DP  RH WIND       PRES   REMARKS
BEMIDJI        CLEAR     42  23  47 SW6       29.92R
HALLOCK        CLOUDY    36  16  44 SW9       29.87R
ROSEAU         CLEAR     45  21  39 SW12G18   29.84R
WARROAD        CLEAR     43  21  42 SW8       29.83R
THIEF RVR FALL CLEAR     40  23  50 SW10      29.92R
CROOKSTON      CLEAR     37  23  56 SW5       29.93R
FOSSTON        CLEAR     34  19  55 SW8       29.94S WCI  27
DETROIT LAKES  CLOUDY    43  30  61 SW8       29.97R
MOORHEAD       CLOUDY    39  27  60 CALM      29.97S
PARK RAPIDS    CLOUDY    38  26  62 S5        29.95S
MAHNOMEN       FAIR      35  25  67 S6        29.94S WCI  30
$$
MNZ006-009>011-018-025>026-190900-
   North Central Minnesota

CITY           SKY/WX    TMP DP  RH WIND       PRES   REMARKS
BAUDETTE       CLOUDY    47  18  31 W13G26    29.82R
FLAG ISLAND    CLEAR     46  18  31 W15       29.77R
INTL FALLS     CLEAR     45  17  32 W8        29.81R
WASKISH        CLEAR     46  34  61 W14G22    29.87R
BIG FORK       CLOUDY    45  21  39 W7        29.88R
LONGVILLE      CLOUDY    45  25  45 W5        29.94R
GRAND RAPIDS   CLOUDY    46  24  42 W5        29.93R
CRANE LAKE     CLEAR     46  14  27 SW6       29.83R
ORR            CLOUDY    46  16  29 W9G16     29.82S
COOK           CLOUDY    46  21  36 W9        29.86R
WALKER         FAIR      43  23  44 SW7       29.93S
$$
MNZ012-019>021-037-190900-
   Northeast Minnesota

CITY           SKY/WX    TMP DP  RH WIND       PRES   REMARKS
DULUTH         PTCLDY    43  23  45 W14       29.90R
ELY            CLEAR     45  18  33 W10       29.82S
HIBBING        CLOUDY    44  23  43 SW6       29.89R
EVELETH        CLOUDY    44  11  26 W8        29.89R
DULUTH HARBOR  CLOUDY    48  27  43 SW16      29.92S
TWO HARBORS    CLOUDY    48  27  43 SW8       29.86R
SILVER BAY     CLOUDY    46  19  34 W3        29.84R
GRAND MARAIS     N/A     46  30  53 W10       29.78R
G MARAIS ARPRT CLEAR     43  12  28 SW6       29.77R
$$
MNZ029>031-032-039>041-046>048-054>057-064-190900-
   West Central Minnesota

CITY           SKY/WX    TMP DP  RH WIND       PRES   REMARKS
FERGUS FALLS   CLOUDY    43  30  61 SE3       30.00S
WHEATON        CLOUDY    43  30  61 S7        30.00F
MORRIS         CLOUDY    39  32  75 SW5       29.99F
ALEXANDRIA     CLOUDY    42  32  67 SW5       30.00F
ELBOW LAKE     FAIR      38  32  80 CALM      29.99F
WADENA         CLOUDY    39  28  65 SW5       29.98R
GLENWOOD       CLOUDY    39  32  75 S7        30.01S
APPLETON       CLOUDY    43  32  65 CALM      30.01S
BENSON         CLOUDY    37  30  75 CALM      30.02S
ORTONVILLE     CLOUDY    39  32  75 N5        30.00F
MADISON        CLOUDY    41  36  81 S3        30.01F
WILLMAR        FAIR      39  34  81 CALM      30.04R
$$
MNZ033>034-036-042>043-049>051-058-059-190900-
   Central Minnesota

CITY           SKY/WX    TMP DP  RH WIND       PRES   REMARKS
ST CLOUD       CLOUDY    41  32  70 SW5       30.01R
SAUK CENTRE    FAIR      37  32  79 CALM      30.00F
PAYNESVILLE    CLOUDY    39  34  80 W6        30.02S
AITKIN         CLOUDY    43  27  52 SW6       29.95R
PINE RIVER     PTCLDY    39  25  56 CALM      30.00R
BRAINERD       CLOUDY    43  26  51 SW8       29.98R
STAPLES        CLOUDY    39  27  60 SW6       29.98S
LONG PRAIRIE   FAIR      41  32  70 S5        30.00S
LITTLE FALLS     N/A    N/A N/A N/A CALM        N/A
LITCHFIELD     CLOUDY    46  32  57 CALM      30.03S
BUFFALO        CLOUDY    45  32  61 CALM      30.04S
MAPLE LAKE     CLOUDY    43  34  70 CALM      30.03S
HUTCHINSON     CLOUDY    37  34  89 CALM      30.04S
$$
MNZ037-044-045-052-053-190900-
   East Central Minnesota

CITY           SKY/WX    TMP DP  RH WIND       PRES   REMARKS
PRINCETON      PTCLDY    45  32  61 CALM      30.01S
MORA           CLOUDY    43  30  61 SW5       30.01R
CAMBRIDGE      CLOUDY    48  34  57 SW3       30.01S
RUSH CITY      CLOUDY    45  31  58 SW5       30.01R
MOOSE LAKE     CLOUDY    37  27  65 CALM      29.95R
HINCKLEY       FAIR      41  30  65 SW6       29.99R
CLOQUET        PTCLDY    45  19  36 SW8       29.93R
MCGREGOR       CLOUDY    45  28  53 SW7       29.95R
$$
MNZ071>073-080-081-089-090-097-098-190900-
   Southwest Minnesota

CITY           SKY/WX    TMP DP  RH WIND       PRES   REMARKS
MONTEVIDEO     CLOUDY    39  28  65 SW3       30.02F
GRANITE FALLS  CLOUDY    40  34  77 SE3       30.04F
CANBY          CLOUDY    43  32  64 S5        30.02F
MARSHALL       PTCLDY    41  32  70 S6        30.03S
REDWOOD FALLS  CLOUDY    42  31  64 SW3       30.04S
OLIVIA         CLOUDY    39  32  75 S3        30.03S
PIPESTONE      CLOUDY    43  30  61 CALM      30.04F
WORTHINGTON    CLOUDY    39  34  82 SW6       30.06S
JACKSON        CLOUDY    43  32  65 CALM      30.07S
TRACY          CLOUDY    46  32  58 SW8       30.04S
SLAYTON        CLOUDY    40  28  60 CALM      30.06S
$$
MNZ065>067-074>077-082>085-091>093-190900-
   South Central Minnesota

CITY           SKY/WX    TMP DP  RH WIND       PRES   REMARKS
MANKATO        CLOUDY    46  31  55 SW3       30.06S
NEW ULM        CLOUDY    39  30  70 CALM      30.05S
ST JAMES       CLOUDY    39  34  81 CALM      30.07R
FAIRMONT       CLOUDY    41  34  76 CALM      30.07R
GLENCOE        CLOUDY    40  35  81 CALM      30.03S
FARIBAULT      CLOUDY    37  34  87 CALM      30.05F
OWATONNA       CLOUDY    39  32  75 S5        30.06S
WASECA         CLOUDY    36  34  93 CALM      30.07S
$$
MNZ078>079-086>088-094>096-190900-
   Southeast Minnesota

CITY           SKY/WX    TMP DP  RH WIND       PRES   REMARKS
ROCHESTER      CLOUDY    45  30  55 W7        30.06R
RED WING       PTCLDY    39  32  75 CALM      30.03S
STANTON        CLOUDY    42  33  72 CALM      30.03S
DODGE CENTER   CLOUDY    39  30  70 W5        30.06R
WINONA         PTCLDY    45  36  70 CALM      30.05S
AUSTIN         CLOUDY    43  34  70 CALM      30.06R
PRESTON        CLOUDY    46  28  48 NW6       30.07R
$$
ABBREVIATIONS USED IN REMARKS
   TC - TEMPERATURES IN CELSIUS
  WCI - WIND CHILL INDEX
   HX - HEAT INDEX
  VSB - VISIBILITY
$$



USA.gov is the U.S. government's official web portal to all federal, state and local government web resources and services.